Location: *
(48.4333°N, 5.0333°W)
Time: 22:19:28
(UTC+00:00)

ERBS - Pass Details

Date: 09 April 2020
Orbit: 409 x 427 km, 57.0° (Epoch: 05 June)

Event Time Altitude Azimuth Distance (km) Brightness Sun altitude
Rises 20:06:16 0° 307° (NW) 2,398 8.0 -10.7°
Reaches altitude 10° 20:08:26 10° 314° (NW) 1,530 6.4 -11.0°
Maximum altitude 20:11:43 44° 28° (NNE) 605 3.0 -11.5°
Enters shadow 20:13:57 18° 95° (E) 1,125 3.8 -11.9°
